Location: Newark
(58.8333°N, 23.5833°E)
Time: 21:06:19
(UTC+00:00)

Explorer 7 - Pass Details

Date: 18 November 2019
Orbit: 485 x 680 km, 50.3° (Epoch: 07 December)

Event Time Altitude Azimuth Distance (km) Brightness Sun altitude
Rises 04:03:19 0° 266° (W) 2,763 - -17.2°
Reaches altitude 10° 04:06:32 10° 241° (WSW) 1,817 - -16.8°
Exits shadow 04:08:04 14° 219° (SW) 1,578 8.9 -16.6°
Maximum altitude 04:08:41 14° 209° (SSW) 1,547 8.9 -16.6°
Drops below altitude 10° 04:10:47 10° 177° (S) 1,757 9.5 -16.3°
Sets 04:13:48 0° 151° (SSE) 2,605 10.9 -15.9°
